TimeCDT,TemperatureF,Dew PointF,Humidity,Sea Level PressureIn,VisibilityMPH,Wind Direction,Wind SpeedMPH,Gust SpeedMPH,PrecipitationIn,Events,Conditions,WindDirDegrees,DateUTC
12:29 AM,53.6,53.6,100,29.92,7.0,Calm,Calm,-,N/A,,Partly Cloudy,0,2013-04-01 05:29:00
12:53 AM,53.1,52.0,96,29.91,8.0,North,6.9,-,N/A,,Partly Cloudy,360,2013-04-01 05:53:00
1:06 AM,53.6,53.6,100,29.92,9.0,North,6.9,-,N/A,,Mostly Cloudy,350,2013-04-01 06:06:00
1:19 AM,53.6,53.6,100,29.92,2.0,North,6.9,-,N/A,,Overcast,10,2013-04-01 06:19:00
1:26 AM,53.6,53.6,100,29.92,1.5,North,6.9,-,N/A,,Overcast,360,2013-04-01 06:26:00
1:48 AM,53.6,51.8,94,29.92,0.5,NNE,4.6,-,N/A,Fog,Fog,20,2013-04-01 06:48:00
1:53 AM,53.1,52.0,96,29.92,0.5,NNE,4.6,-,N/A,Fog,Fog,20,2013-04-01 06:53:00
2:40 AM,51.8,51.8,100,29.93,1.5,Calm,Calm,-,N/A,,Overcast,0,2013-04-01 07:40:00
2:53 AM,52.0,51.1,97,29.92,9.0,NNE,4.6,-,N/A,,Overcast,30,2013-04-01 07:53:00
3:53 AM,51.1,50.0,96,29.93,6.0,NNW,3.5,-,N/A,,Overcast,330,2013-04-01 08:53:00
4:53 AM,50.0,48.9,96,29.95,3.0,North,3.5,-,N/A,,Overcast,10,2013-04-01 09:53:00
5:01 AM,50.0,48.2,94,29.96,1.5,Calm,Calm,-,N/A,,Overcast,0,2013-04-01 10:01:00
5:30 AM,50.0,48.2,94,29.97,2.5,NNW,4.6,-,N/A,,Overcast,330,2013-04-01 10:30:00
5:53 AM,48.9,48.0,97,29.98,3.0,NW,5.8,-,N/A,,Overcast,320,2013-04-01 10:53:00
6:22 AM,48.2,48.2,100,30.00,0.2,NNW,4.6,-,N/A,,Overcast,330,2013-04-01 11:22:00
6:48 AM,48.2,48.2,100,30.01,0.2,Calm,Calm,-,N/A,Fog,Fog,0,2013-04-01 11:48:00
6:53 AM,48.9,48.9,100,30.01,0.2,Calm,Calm,-,N/A,Fog,Fog,0,2013-04-01 11:53:00
7:53 AM,50.0,48.9,96,30.04,0.2,Calm,Calm,-,N/A,Fog,Fog,0,2013-04-01 12:53:00
8:20 AM,50.0,50.0,100,30.04,0.2,Calm,Calm,-,N/A,Fog,Fog,0,2013-04-01 13:20:00
8:33 AM,50.0,50.0,100,30.05,0.2,Calm,Calm,-,N/A,,Mist,0,2013-04-01 13:33:00
8:42 AM,50.0,48.2,94,30.05,0.2,Calm,Calm,-,N/A,Fog,Fog,0,2013-04-01 13:42:00
8:53 AM,51.1,50.0,96,30.05,0.2,Calm,Calm,-,N/A,,Overcast,0,2013-04-01 13:53:00
9:10 AM,51.8,50.0,94,30.05,2.0,Calm,Calm,-,N/A,,Overcast,0,2013-04-01 14:10:00
9:17 AM,51.8,50.0,94,30.06,3.0,Calm,Calm,-,N/A,,Mostly Cloudy,0,2013-04-01 14:17:00
9:53 AM,53.1,50.0,89,30.06,7.0,Variable,3.5,-,N/A,,Mostly Cloudy,0,2013-04-01 14:53:00
10:35 AM,55.4,51.8,88,30.07,9.0,NNW,3.5,-,N/A,,Scattered Clouds,330,2013-04-01 15:35:00
10:53 AM,57.0,52.0,83,30.07,10.0,Variable,3.5,-,N/A,,Scattered Clouds,0,2013-04-01 15:53:00
11:53 AM,62.1,53.1,72,30.06,10.0,NNW,5.8,-,N/A,,Partly Cloudy,330,2013-04-01 16:53:00
12:53 PM,64.0,53.1,67,30.06,10.0,WNW,5.8,-,N/A,,Partly Cloudy,290,2013-04-01 17:53:00
1:53 PM,66.0,51.1,59,30.04,10.0,Variable,3.5,-,N/A,,Scattered Clouds,0,2013-04-01 18:53:00
2:53 PM,66.9,53.1,61,30.03,10.0,Calm,Calm,-,N/A,,Scattered Clouds,0,2013-04-01 19:53:00
3:53 PM,66.9,51.1,57,30.02,10.0,WNW,10.4,-,N/A,,Scattered Clouds,290,2013-04-01 20:53:00
4:53 PM,68.0,51.1,55,30.01,10.0,NW,4.6,-,N/A,,Scattered Clouds,310,2013-04-01 21:53:00
5:53 PM,66.0,48.9,54,30.01,10.0,North,5.8,-,N/A,,Scattered Clouds,350,2013-04-01 22:53:00
6:53 PM,64.0,46.9,54,30.02,10.0,North,5.8,-,N/A,,Partly Cloudy,350,2013-04-01 23:53:00
7:53 PM,59.0,46.0,62,30.04,10.0,NNW,5.8,-,N/A,,Partly Cloudy,340,2013-04-02 00:53:00
8:53 PM,57.0,42.1,57,30.07,10.0,North,5.8,-,N/A,,Clear,360,2013-04-02 01:53:00
9:53 PM,55.9,39.0,53,30.09,10.0,North,6.9,-,N/A,,Clear,350,2013-04-02 02:53:00
10:53 PM,52.0,39.0,61,30.11,10.0,NNW,4.6,-,N/A,,Clear,340,2013-04-02 03:53:00
11:53 PM,52.0,39.0,61,30.10,10.0,NNE,10.4,-,N/A,,Clear,30,2013-04-02 04:53:00